Weather History for KEDJ - March, 2013

Change the Weather History Date:

Sunday, March 17, 2013

  Actual Average (KDAY) Record (KDAY)
Temperature  
Mean Temperature 30 °F 41 °F  
Max Temperature 33 °F 50 °F 73 °F (1889)
Min Temperature 28 °F 32 °F 0 °F (1900)
Degree Days  
Heating Degree Days 34 24  
Month to date heating degree days 463  
Since 1 July heating degree days 4738  
Cooling Degree Days 0 0  
Month to date cooling degree days 0  
Year to date cooling degree days 0  
Moisture  
Dew Point 27 °F    
Average Humidity 86    
Maximum Humidity 100    
Minimum Humidity 69    
Precipitation  
Precipitation 0.00 in 0.11 in 0.82 in (1897)
Month to date precipitation 1.67  
Year to date precipitation 6.62  
Snow  
Snow 0.00 in 0.10 in 4.40 in (1973)
Month to date snowfall 2.3  
Since 1 July snowfall 21.6  
Snow Depth -    
Sea Level Pressure  
Sea Level Pressure 30.08 in    
Wind  
Wind Speed 9 mph (NE)    
Max Wind Speed 16 mph    
Max Gust Speed 20 mph    
Visibility 10 miles    
Events      
T = Trace of Precipitation, MM = Missing Value Source: NWS Daily Summary

Daily Weather History Graph

Daily Weather History Graph

Search for Another Location

Airport or City:

Trip Planner

Search our weather history database for the weather conditions in past years. The results will help you decide how hot, cold, wet, or windy it might be!

Date:

Astronomy

Mar. 17, 2013 Rise Set
Actual Time 7:43 AM EDT 7:44 PM EDT
Civil Twilight 7:16 AM EDT 8:11 PM EDT
Nautical Twilight 6:44 AM EDT 8:43 PM EDT
Astronomical Twilight 6:12 AM EDT 9:15 PM EDT
Moon 10:54 AM EDT (3/17) 12:52 AM EDT (3/17)
Length of Visible Light 12h 55m
Length of Day
12h 01m
Waxing Crescent, 31% of the Moon is Illuminated
Mar 17
Waxing Crescent
Mar 19
First Quarter
Mar 27
Full
Apr 3
Last Quarter
Apr 10
New

Hourly Weather History & Observations

Time (EDT) Temp. Windchill Dew Point Humidity Pressure Visibility Wind Dir Wind Speed Gust Speed Precip Events Conditions
12:10 AM 32.0 °F 24.2 °F 32.0 °F 100% 30.01 in 10.0 mi NNW 9.2 mph - 0.00 in   Overcast
12:30 AM 32.0 °F 23.6 °F 30.2 °F 93% 30.00 in 10.0 mi NNW 10.4 mph - 0.00 in   Overcast
12:50 AM 32.0 °F 27.5 °F 30.2 °F 93% 30.00 in 10.0 mi NW 4.6 mph - 0.00 in   Overcast
1:10 AM 32.0 °F 27.5 °F 30.2 °F 93% 30.00 in 10.0 mi North 4.6 mph - 0.00 in   Overcast
1:30 AM 32.0 °F 27.5 °F 30.2 °F 93% 30.00 in 10.0 mi North 4.6 mph - 0.00 in   Overcast
1:50 AM 32.0 °F 27.5 °F 30.2 °F 93% 30.00 in 10.0 mi North 4.6 mph - 0.00 in   Overcast
2:10 AM 32.0 °F 28.7 °F 30.2 °F 93% 30.01 in 10.0 mi North 3.5 mph - 0.00 in   Overcast
2:30 AM 32.0 °F - 30.2 °F 93% 30.02 in 10.0 mi Calm Calm - 0.00 in   Overcast
2:50 AM 32.0 °F - 30.2 °F 93% 30.02 in 10.0 mi Calm Calm - 0.00 in   Overcast
3:10 AM 32.0 °F 28.7 °F 32.0 °F 100% 30.03 in 10.0 mi NNW 3.5 mph - 0.00 in   Overcast
3:30 AM 32.0 °F 26.4 °F 32.0 °F 100% 30.03 in 9.0 mi North 5.8 mph - 0.00 in   Overcast
3:50 AM 32.0 °F 23.6 °F 32.0 °F 100% 30.03 in 10.0 mi North 10.4 mph - 0.00 in   Overcast
4:10 AM 32.0 °F 23.6 °F 32.0 °F 100% 30.02 in 10.0 mi North 10.4 mph - 0.00 in   Overcast
4:30 AM 32.0 °F 22.1 °F 30.2 °F 93% 30.02 in 10.0 mi North 13.8 mph - 0.00 in   Overcast
4:50 AM 30.2 °F 19.8 °F 30.2 °F 100% 30.01 in 10.0 mi North 13.8 mph - 0.00 in   Overcast
5:10 AM 30.2 °F 21.3 °F 30.2 °F 100% 30.03 in 10.0 mi North 10.4 mph - 0.00 in   Overcast
5:30 AM 30.2 °F 19.8 °F 30.2 °F 100% 30.03 in 10.0 mi North 13.8 mph - 0.00 in   Overcast
5:50 AM 30.2 °F 21.9 °F 28.4 °F 93% 30.03 in 10.0 mi North 9.2 mph - 0.00 in   Overcast
6:30 AM 30.2 °F 22.6 °F 26.6 °F 86% 30.05 in 10.0 mi NNE 8.1 mph - 0.00 in   Overcast
6:50 AM 30.2 °F 21.9 °F 26.6 °F 86% 30.06 in 10.0 mi North 9.2 mph - 0.00 in   Overcast
7:10 AM 30.2 °F 22.6 °F 26.6 °F 86% 30.08 in 10.0 mi North 8.1 mph - 0.00 in   Overcast
7:30 AM 30.2 °F 21.3 °F 26.6 °F 86% 30.08 in 10.0 mi North 10.4 mph - 0.00 in   Overcast
7:50 AM 30.2 °F 19.3 °F 28.4 °F 93% 30.10 in 10.0 mi North 15.0 mph - 0.00 in   Overcast
8:10 AM 30.2 °F 18.9 °F 28.4 °F 93% 30.11 in 10.0 mi North 16.1 mph - 0.00 in   Overcast
8:30 AM 28.4 °F 18.0 °F 26.6 °F 93% 30.13 in 10.0 mi North 12.7 mph - 0.00 in   Overcast
8:50 AM 28.4 °F 17.5 °F 26.6 °F 93% 30.13 in 10.0 mi NNE 13.8 mph - 0.00 in   Overcast
9:10 AM 28.4 °F 18.0 °F 24.8 °F 86% 30.14 in 10.0 mi North 12.7 mph - 0.00 in   Overcast
9:30 AM 28.4 °F 18.5 °F 23.0 °F 80% 30.15 in 10.0 mi North 11.5 mph - 0.00 in   Overcast
9:50 AM 28.4 °F 18.5 °F 21.2 °F 74% 30.15 in 10.0 mi NNE 11.5 mph - 0.00 in   Overcast
10:10 AM 28.4 °F 19.7 °F 21.2 °F 74% 30.14 in 10.0 mi NNE 9.2 mph - 0.00 in   Overcast
10:30 AM 28.4 °F 18.5 °F 21.2 °F 74% 30.14 in 10.0 mi NNE 11.5 mph - 0.00 in   Overcast
10:50 AM 28.4 °F 17.5 °F 19.4 °F 69% 30.14 in 10.0 mi NE 13.8 mph - 0.00 in   Overcast
11:10 AM 28.4 °F 18.5 °F 21.2 °F 74% 30.14 in 10.0 mi NNE 11.5 mph - 0.00 in   Overcast
11:30 AM 30.2 °F 20.2 °F 21.2 °F 69% 30.14 in 10.0 mi NE 12.7 mph - 0.00 in   Overcast
11:50 AM 30.2 °F 20.8 °F 21.2 °F 69% 30.14 in 10.0 mi NNE 11.5 mph - 0.00 in   Overcast
12:10 PM 30.2 °F 21.3 °F 23.0 °F 75% 30.14 in 10.0 mi NE 10.4 mph - 0.00 in   Overcast
12:30 PM 30.2 °F 21.3 °F 23.0 °F 75% 30.14 in 10.0 mi NE 10.4 mph - 0.00 in   Overcast
12:50 PM 30.2 °F 21.3 °F 24.8 °F 80% 30.14 in 10.0 mi NNE 10.4 mph - 0.00 in   Overcast
1:10 PM 30.2 °F 21.9 °F 24.8 °F 80% 30.14 in 10.0 mi ENE 9.2 mph - 0.00 in   Overcast
1:30 PM 32.0 °F 24.8 °F 26.6 °F 80% 30.14 in 10.0 mi ENE 8.1 mph - 0.00 in   Overcast
1:50 PM 32.0 °F 23.6 °F 26.6 °F 80% 30.13 in 10.0 mi NE 10.4 mph - 0.00 in   Overcast
2:10 PM 32.0 °F 24.2 °F 28.4 °F 87% 30.13 in 10.0 mi NE 9.2 mph - 0.00 in   Overcast
2:30 PM 32.0 °F 23.6 °F 28.4 °F 87% 30.12 in 10.0 mi East 10.4 mph - 0.00 in   Mostly Cloudy
2:50 PM 32.0 °F 23.6 °F 28.4 °F 87% 30.12 in 10.0 mi NE 10.4 mph - 0.00 in   Mostly Cloudy
3:10 PM 32.0 °F 24.2 °F 28.4 °F 87% 30.11 in 10.0 mi East 9.2 mph - 0.00 in   Overcast
3:30 PM 32.0 °F 23.6 °F 28.4 °F 87% 30.11 in 10.0 mi East 10.4 mph - 0.00 in   Overcast
3:50 PM 32.0 °F 23.6 °F 28.4 °F 87% 30.10 in 10.0 mi NE 10.4 mph - 0.00 in   Overcast
4:10 PM 33.8 °F 25.3 °F 28.4 °F 81% 30.10 in 10.0 mi ENE 11.5 mph - 0.00 in   Overcast
4:30 PM 32.0 °F 24.2 °F 26.6 °F 80% 30.10 in 10.0 mi NE 9.2 mph - 0.00 in   Overcast
4:50 PM 32.0 °F 23.6 °F 28.4 °F 87% 30.10 in 10.0 mi ENE 10.4 mph - 0.00 in   Overcast
5:10 PM 32.0 °F 23.0 °F 28.4 °F 87% 30.10 in 10.0 mi ENE 11.5 mph - 0.00 in   Overcast
5:30 PM 32.0 °F 23.0 °F 28.4 °F 87% 30.10 in 10.0 mi ENE 11.5 mph - 0.00 in   Overcast
5:50 PM 32.0 °F 23.6 °F 26.6 °F 80% 30.09 in 10.0 mi ENE 10.4 mph - 0.00 in   Overcast
6:10 PM 32.0 °F 22.5 °F 28.4 °F 87% 30.08 in 10.0 mi ENE 12.7 mph - 0.00 in   Mostly Cloudy
6:30 PM 32.0 °F 23.0 °F 26.6 °F 80% 30.08 in 10.0 mi ENE 11.5 mph - 0.00 in   Mostly Cloudy
6:50 PM 32.0 °F 22.5 °F 26.6 °F 80% 30.07 in 10.0 mi ENE 12.7 mph 19.6 mph 0.00 in   Scattered Clouds
7:10 PM 32.0 °F 23.0 °F 26.6 °F 80% 30.07 in 10.0 mi ENE 11.5 mph - 0.00 in   Partly Cloudy
7:30 PM 32.0 °F 23.6 °F 26.6 °F 80% 30.08 in 10.0 mi ENE 10.4 mph - 0.00 in   Clear
7:50 PM 32.0 °F 24.2 °F 26.6 °F 80% 30.08 in 10.0 mi ENE 9.2 mph - 0.00 in   Clear
8:10 PM 32.0 °F 23.6 °F 28.4 °F 87% 30.08 in 10.0 mi NE 10.4 mph - 0.00 in   Clear
8:30 PM 32.0 °F 25.6 °F 26.6 °F 80% 30.09 in 10.0 mi NE 6.9 mph - 0.00 in   Clear
8:50 PM 32.0 °F 24.8 °F 26.6 °F 80% 30.09 in 10.0 mi NE 8.1 mph - 0.00 in   Clear
9:10 PM 32.0 °F 23.6 °F 28.4 °F 87% 30.08 in 10.0 mi NE 10.4 mph - 0.00 in   Clear
9:30 PM 32.0 °F 23.6 °F 28.4 °F 87% 30.08 in 10.0 mi NE 10.4 mph - 0.00 in   Clear
9:50 PM 32.0 °F 23.6 °F 28.4 °F 87% 30.07 in 10.0 mi NE 10.4 mph - 0.00 in   Clear
10:10 PM 32.0 °F 23.6 °F 28.4 °F 87% 30.07 in 10.0 mi NE 10.4 mph - 0.00 in   Clear
10:30 PM 32.0 °F 22.1 °F 28.4 °F 87% 30.07 in 10.0 mi ENE 13.8 mph - 0.00 in   Clear
10:50 PM 32.0 °F 22.5 °F 26.6 °F 80% 30.05 in 10.0 mi ENE 12.7 mph - 0.00 in   Clear
11:10 PM 32.0 °F 22.5 °F 28.4 °F 87% 30.04 in 10.0 mi ENE 12.7 mph 19.6 mph 0.00 in   Clear
11:30 PM 30.2 °F 20.8 °F 28.4 °F 93% 30.04 in 10.0 mi ENE 11.5 mph 18.4 mph 0.00 in   Clear
11:50 PM 32.0 °F 23.0 °F 28.4 °F 87% 30.03 in 10.0 mi ENE 11.5 mph 18.4 mph 0.00 in   Clear